Location: Cabri�res
(43.7840°N, 5.4986°E)
Time: 15:08:40
(UTC+00:00)

STARLINK-1204 - Pass Details

Date: 09 April 2020
Orbit: 548 x 551 km, 53.0° (Epoch: 28 May)

Event Time Altitude Azimuth Distance (km) Brightness Sun altitude
Rises 19:52:00 0° 302° (WNW) 2,735 9.0 -17.2°
Reaches altitude 10° 19:54:16 10° 298° (WNW) 1,837 7.6 -17.5°
Maximum altitude 19:58:22 57° 220° (SW) 656 4.0 -18.1°
Enters shadow 19:59:46 36° 161° (SSE) 883 4.2 -18.4°
